This is the latest recevied weather packets stored in our database for station/object W4SNA-2. If no packets are shown the sender has not sent any weather packets the latest 1 day(s).
| Time | Temp. | Humidity | Pressure | Rain* | Wind** | Luminosity | Snow |
|---|---|---|---|---|---|---|---|
| 1778013578 | 21.67° C | 40% | 1015.3 hPa | 0 mm | 2.68 m/s, 194° | - | - |
| 1778013277 | 21.67° C | 41% | 1015.3 hPa | 0 mm | 3.58 m/s, 202° | - | - |
| 1778012978 | 22.22° C | 42% | 1015.1 hPa | 0 mm | 3.13 m/s, 192° | - | - |
| 1778012677 | 22.22° C | 42% | 1015.2 hPa | 0 mm | 3.13 m/s, 186° | - | - |
| 1778012377 | 22.22° C | 41% | 1015 hPa | 0 mm | 3.13 m/s, 183° | - | - |
| 1778012079 | 21.67° C | 41% | 1015.1 hPa | 0 mm | 4.47 m/s, 191° | - | - |
| 1778011778 | 21.67° C | 40% | 1015.4 hPa | 0 mm | 3.58 m/s, 195° | - | - |
| 1778011454 | 21.67° C | 42% | 1015.4 hPa | 0 mm | 3.58 m/s, 186° | - | - |
| 1778011154 | 22.22° C | 39% | 1015.2 hPa | 0 mm | 4.47 m/s, 197° | - | - |
| 1778010855 | 22.22° C | 41% | 1015.3 hPa | 0 mm | 2.68 m/s, 186° | - | - |
| 1778010554 | 22.22° C | 39% | 1015.4 hPa | 0 mm | 4.47 m/s, 194° | - | - |
| 1778010255 | 22.78° C | 42% | 1015.5 hPa | 0 mm | 3.58 m/s, 184° | - | - |
| 1778009955 | 22.22° C | 43% | 1015.8 hPa | 0 mm | 3.13 m/s, 199° | - | - |
| 1778009617 | 22.78° C | 43% | 1015.8 hPa | 0 mm | 1.79 m/s, 172° | - | - |
| 1778009283 | 22.22° C | 41% | 1015.9 hPa | 0 mm | 2.68 m/s, 182° | - | - |
| 1778008983 | 22.22° C | 41% | 1015.9 hPa | 0 mm | 2.24 m/s, 178° | - | - |
| 1778008683 | 22.22° C | 42% | 1016.1 hPa | 0 mm | 3.13 m/s, 187° | - | - |
| 1778008384 | 22.22° C | 41% | 1016 hPa | 0 mm | 3.58 m/s, 196° | - | - |
| 1778008084 | 22.22° C | 42% | 1016.1 hPa | 0 mm | 3.13 m/s, 187° | - | - |
| 1778007783 | 21.67° C | 43% | 1016.1 hPa | 0 mm | 3.58 m/s, 184° | - | - |
| 1778007483 | 22.22° C | 42% | 1016 hPa | 0 mm | 4.02 m/s, 197° | - | - |
| 1778007183 | 22.22° C | 41% | 1016 hPa | 0 mm | 4.02 m/s, 195° | - | - |
| 1778006884 | 22.78° C | 42% | 1016.3 hPa | 0 mm | 4.47 m/s, 200° | - | - |
| 1778006583 | 22.22° C | 43% | 1016.4 hPa | 0 mm | 3.58 m/s, 191° | - | - |
| 1778006235 | 22.22° C | 44% | 1016.5 hPa | 0 mm | 4.02 m/s, 191° | - | - |
* Rain latest hour (hover to see other rain measurements)
** Current wind speed in m/s (hover to see current wind gust speed)